#timestamp,LO_Frequency,Hit,StdDev 
1669698015.0,286046998.4,P
1669698015.9,286046998.4,N
1669698035.8,286047000.7,N
1669698055.6,286047001.1,N
1669698075.4,286046998.1,N
1669698095.3,286047001.2,N
1669698115.1,286046998.3,N
1669698135.9,286046999.1,N
1669698155.7,286046999.0,N
1669698175.5,286046999.1,N
1669698195.4,286046996.6,N
1669698215.2,286046999.3,N
1669698235.1,286046998.4,N
1669698236.0,286046998.4,N
1669698255.8,286047000.6,N
1669698275.6,286047000.9,N
1669698295.5,286047000.7,N
1669698315.3,286046999.9,N
1669698335.1,286047001.2,N
1669698355.9,286046998.2,N
1669698375.7,286047000.8,N
1669698395.6,286047000.6,N
1669698415.4,286046999.8,N
1669698435.2,286047002.4,N
1669698455.1,286047002.6,N
1669698456.0,286047002.6,N
1669698475.8,286047002.7,N
1669698495.6,286047000.6,N
1669698515.5,286047000.1,N
1669698535.3,286047000.9,N
1669698555.2,286047000.4,N
1669698575.9,286047000.0,N
1669698595.7,286047000.2,N
1669698615.6,286047002.2,N
1669698635.4,286047004.3,N
1669698655.2,286047003.8,N
1669698675.1,286047003.8,N
1669698676.0,286047003.8,N
1669698695.8,286047003.5,N
1669698715.7,286047003.8,N
1669698735.5,286047004.2,N
1669698755.3,286047003.1,N
1669698775.2,286047003.9,N
1669698795.0,286047004.1,N
1669698795.9,286047004.1,N
1669698815.8,286047004.1,N
1669698835.6,286047004.2,N
1669698855.4,286047001.7,N
1669698875.3,286047002.7,N
1669698895.1,286046999.8,N
1669698915.8,286047000.2,N
1669698935.7,286047000.2,N
1669698955.5,286047001.9,N
1669698975.4,286047001.6,N
1669698995.2,286047002.2,N
1669699015.0,286047002.6,N
1669699015.9,286047002.6,N
1669699035.8,286047002.6,N
1669699055.6,286047001.6,N
1669699075.5,286047003.8,N
1669699095.3,286047003.7,N
1669699115.1,286047003.8,N
1669699135.9,286047003.2,N
1669699155.7,286047003.5,N
1669699175.6,286047003.6,N
1669699195.4,286047001.7,N
1669699215.2,286047006.0,Y
1669699235.1,286047000.9,P
1669699236.0,286047000.9,N
1669699255.8,286047000.9,N
1669699275.7,286046999.6,N
1669699295.5,286046995.2,Y
1669699315.3,286046991.7,P
1669699335.2,286046996.2,N
1669699355.0,286046998.0,N
1669699355.9,286046998.0,N
1669699375.8,286046994.9,N
1669699395.6,286046997.7,N
1669699415.4,286046999.0,N
1669699435.3,286046997.0,N
1669699455.1,286046999.1,N
1669699475.9,286047001.1,N
1669699495.7,286046998.4,N
1669699515.5,286046998.7,N
1669699535.4,286046999.6,N
1669699555.2,286046999.6,N
1669699575.0,286046998.7,N
1669699575.9,286046998.7,N
1669699595.8,286046999.1,N
1669699615.6,286046998.9,N
1669699635.5,286046996.6,N
1669699655.3,286046997.6,N
1669699675.1,286046995.0,N
1669699695.9,286046997.8,N
1669699715.7,286046999.6,N
1669699735.6,286046998.8,N
1669699755.4,286046999.1,N
1669699775.2,286046997.2,N
1669699795.1,286046999.6,N
1669699796.0,286046999.6,N
1669699815.8,286046997.8,N
1669699835.7,286046997.9,N
1669699855.5,286046999.6,N
1669699875.3,286046996.9,N
1669699895.2,286046997.9,N
1669699915.0,286046998.0,N
1669699915.9,286046998.0,N
1669699935.7,286046997.8,N
1669699955.6,286046997.1,N
1669699975.4,286046997.4,N
1669699995.3,286046997.6,N
1669700015.1,286046996.8,N
1669700016.0,286046996.8,N
1669700035.8,286046999.6,N
1669700055.7,286046999.3,N
1669700075.5,286046999.4,N
1669700095.3,286046998.3,N
1669700115.2,286047000.8,N
1669700135.0,286047001.0,N
1669700135.9,286047001.0,N
1669700155.8,286046998.4,N
1669700175.6,286046998.6,N
1669700195.4,286047000.0,N
1669700215.3,286046999.0,N
1669700235.1,286046999.5,N
1669700255.8,286046999.4,N
1669700275.7,286046997.1,N
1669700295.5,286046998.9,N
1669700315.4,286046998.6,N
1669700335.2,286047001.1,N
1669700355.0,286046999.3,N
1669700355.9,286046999.3,N
1669700375.8,286046998.2,N
1669700395.6,286046998.2,N
1669700415.4,286046998.1,N
1669700435.3,286046998.7,N
1669700455.1,286046999.1,N
1669700475.9,286046996.5,N
1669700495.7,286046996.9,N
1669700515.5,286046996.6,N
1669700535.4,286046998.4,N
1669700555.2,286047001.0,N
1669700575.0,286047000.8,N
1669700575.9,286047000.8,N
1669700595.8,286046998.7,N
1669700615.6,286046998.8,N
1669700635.5,286046998.7,N
1669700655.3,286046998.5,N
1669700675.1,286047001.1,N
1669700695.9,286046998.4,N
1669700715.7,286047001.2,N
1669700735.5,286046999.1,N
1669700755.4,286046998.8,N
1669700775.2,286046998.8,N
1669700795.1,286046998.2,N
1669700796.0,286046998.2,N
1669700815.8,286047001.1,N
1669700835.6,286046998.5,N
1669700855.5,286046998.6,N
1669700875.3,286046999.4,N
1669700895.1,286046999.2,N
1669700915.9,286046998.2,N
1669700935.7,286046998.6,N
1669700955.6,286046998.2,N
1669700975.4,286046998.3,N
1669700995.2,286047001.1,N
1669701015.1,286047001.2,N
1669701016.0,286047001.2,N
1669701035.8,286047000.9,N
1669701055.6,286047000.5,N
1669701075.5,286047000.1,N
1669701095.3,286046999.9,N
1669701115.2,286047000.1,N
1669701135.9,286047002.8,N
1669701155.7,286047002.1,N
1669701175.6,286047002.2,N
1669701195.4,286047004.2,Y
1669701215.3,286047002.4,P
1669701235.1,286046999.7,N
1669701236.0,286046999.7,N
1669701255.8,286047002.7,N
1669701275.7,286047000.0,N
1669701295.5,286047002.3,N
1669701315.3,286047000.1,N
1669701335.2,286047002.8,N
1669701355.0,286047002.4,N
1669701355.9,286047002.4,N
1669701375.8,286047000.0,N
1669701395.6,286047000.4,N
1669701415.4,286047001.0,N
1669701435.3,286047000.7,N
1669701455.1,286046999.1,N
1669701475.8,286046996.5,N
1669701495.7,286046998.9,N
1669701515.5,286046998.3,N
1669701535.4,286046998.1,N
1669701555.3,286046999.4,N
1669701575.2,286046999.2,N
1669701595.0,286047001.2,N
1669701595.9,286047001.2,N
